This is the latest recevied weather packets stored in our database for station/object DM4XI-13. If no packets are shown the sender has not sent any weather packets the latest 10 day(s).
| Time | Temp. | Humidity | Pressure | Rain* | Wind** | Luminosity | Snow |
|---|---|---|---|---|---|---|---|
| 1777309195 | 18.33° C | 28% | 1016.7 hPa | 0 mm | 0.89 m/s, 254° | 83 W/m² | - |
| 1777309135 | 18.33° C | 27% | 1016.5 hPa | 0 mm | 0.45 m/s, 303° | 85 W/m² | - |
| 1777309074 | 18.89° C | 27% | 1016.5 hPa | 0 mm | 1.34 m/s, 321° | 87 W/m² | - |
| 1777309013 | 18.89° C | 27% | 1016.7 hPa | 0 mm | 0.45 m/s, 156° | 94 W/m² | - |
| 1777308952 | 18.89° C | 28% | 1016.4 hPa | 0 mm | 0 m/s | 101 W/m² | - |
| 1777308891 | 18.89° C | 27% | 1016.7 hPa | 0 mm | 0.89 m/s, 304° | 95 W/m² | - |
| 1777308830 | 18.89° C | 28% | 1016.6 hPa | 0 mm | 0.45 m/s, 240° | 94 W/m² | - |
| 1777308769 | 18.89° C | 27% | 1016.7 hPa | 0 mm | 0.45 m/s, 341° | 106 W/m² | - |
| 1777308708 | 18.89° C | 29% | 1016.8 hPa | 0 mm | 0.89 m/s, 309° | 113 W/m² | - |
| 1777308647 | 18.89° C | 29% | 1016.6 hPa | 0 mm | 0.45 m/s, 281° | 110 W/m² | - |
| 1777308586 | 18.89° C | 28% | 1016.5 hPa | 0 mm | 0 m/s | 97 W/m² | - |
| 1777308525 | 18.89° C | 28% | 1016.7 hPa | 0 mm | 0 m/s | 95 W/m² | - |
| 1777308464 | 18.89° C | 28% | 1016.6 hPa | 0 mm | 0.45 m/s, 226° | 96 W/m² | - |
| 1777308402 | 18.89° C | 27% | 1016.7 hPa | 0 mm | 0.89 m/s, 250° | 99 W/m² | - |
| 1777308342 | 18.89° C | 28% | 1016.6 hPa | 0 mm | 0.45 m/s, 172° | 95 W/m² | - |
| 1777308281 | 18.89° C | 28% | 1016.7 hPa | 0 mm | 0.45 m/s, 172° | 98 W/m² | - |
| 1777308220 | 19.44° C | 27% | 1016.6 hPa | 0 mm | 0.45 m/s, 173° | 94 W/m² | - |
| 1777308159 | 19.44° C | 27% | 1016.7 hPa | 0 mm | 0.45 m/s, 179° | 119 W/m² | - |
| 1777308097 | 19.44° C | 26% | 1016.6 hPa | 0 mm | 0.89 m/s, 163° | 118 W/m² | - |
| 1777308037 | 19.44° C | 28% | 1016.8 hPa | 0 mm | 0.45 m/s, 178° | 107 W/m² | - |
| 1777307976 | 19.44° C | 28% | 1016.8 hPa | 0 mm | 0 m/s | 105 W/m² | - |
| 1777307914 | 19.44° C | 28% | 1016.7 hPa | 0 mm | 0 m/s | 108 W/m² | - |
| 1777307854 | 19.44° C | 27% | 1016.6 hPa | 0 mm | 0 m/s | 118 W/m² | - |
| 1777307792 | 19.44° C | 29% | 1016.6 hPa | 0 mm | 0.45 m/s, 181° | 130 W/m² | - |
| 1777307732 | 19.44° C | 28% | 1016.7 hPa | 0 mm | 0.45 m/s, 137° | 135 W/m² | - |
* Rain latest hour (hover to see other rain measurements)
** Current wind speed in m/s (hover to see current wind gust speed)